Time,TemperatureF,DewpointF,PressureIn,WindDirection,WindDirectionDegrees,WindSpeedMPH,WindSpeedGustMPH,Humidity,HourlyPrecipIn,Conditions,Clouds,dailyrainin,SoftwareType,DateUTC
2013-02-12 00:00:00,23.2,10.1,30.04,West,270,2.7,6.3,57,0.00,,,0.00,WUHU21623XXSP,2013-02-12 06:00:00,
2013-02-12 00:05:00,23.2,10.1,30.04,West,270,2.7,2.7,57,0.00,,,0.00,WUHU21623XXSP,2013-02-12 06:05:00,
2013-02-12 00:10:00,23.2,10.1,30.04,WSW,247,0.9,2.7,57,0.00,,,0.00,WUHU21623XXSP,2013-02-12 06:10:00,
2013-02-12 00:15:00,23.4,10.3,30.04,NW,315,2.0,2.7,57,0.00,,,0.00,WUHU21623XXSP,2013-02-12 06:15:00,
2013-02-12 00:20:00,23.4,10.3,30.03,NW,315,0.0,2.7,57,0.00,,,0.00,WUHU21623XXSP,2013-02-12 06:20:00,
2013-02-12 00:25:00,23.4,10.7,30.04,WNW,292,0.7,0.7,58,0.00,,,0.00,WUHU21623XXSP,2013-02-12 06:25:00,
2013-02-12 00:30:00,23.5,10.8,30.04,WNW,292,0.0,4.0,58,0.00,,,0.00,WUHU21623XXSP,2013-02-12 06:30:00,
2013-02-12 00:35:00,23.7,11.0,30.04,West,270,1.1,4.0,58,0.00,,,0.00,WUHU21623XXSP,2013-02-12 06:35:00,
2013-02-12 00:40:00,23.7,11.0,30.04,West,270,0.0,1.1,58,0.00,,,0.00,WUHU21623XXSP,2013-02-12 06:40:00,
2013-02-12 00:45:00,23.7,11.4,30.04,WNW,292,4.5,4.5,59,0.00,,,0.00,WUHU21623XXSP,2013-02-12 06:45:00,
2013-02-12 00:50:00,23.9,11.6,30.04,West,270,0.9,4.5,59,0.00,,,0.00,WUHU21623XXSP,2013-02-12 06:50:00,
2013-02-12 00:55:00,23.9,11.6,30.04,WNW,292,0.0,1.3,59,0.00,,,0.00,WUHU21623XXSP,2013-02-12 06:55:00,
2013-02-12 01:00:00,24.1,11.8,30.04,WSW,247,0.0,4.5,59,0.00,,,0.00,WUHU21623XXSP,2013-02-12 07:00:00,
2013-02-12 01:05:00,24.1,11.8,30.04,WNW,292,6.3,6.3,59,0.00,,,0.00,WUHU21623XXSP,2013-02-12 07:05:00,
2013-02-12 01:10:00,23.9,11.6,30.04,WSW,247,5.6,9.2,59,0.00,,,0.00,WUHU21623XXSP,2013-02-12 07:10:00,
2013-02-12 01:15:00,23.9,11.2,30.04,West,270,0.0,9.2,58,0.00,,,0.00,WUHU21623XXSP,2013-02-12 07:15:00,
2013-02-12 01:20:00,23.7,11.0,30.04,WNW,292,0.7,6.3,58,0.00,,,0.00,WUHU21623XXSP,2013-02-12 07:20:00,
2013-02-12 01:25:00,23.5,10.8,30.04,West,270,8.3,8.3,58,0.00,,,0.00,WUHU21623XXSP,2013-02-12 07:25:00,
2013-02-12 01:30:00,23.4,10.3,30.05,West,270,2.9,8.3,57,0.00,,,0.00,WUHU21623XXSP,2013-02-12 07:30:00,
2013-02-12 01:35:00,23.4,10.3,30.05,WSW,247,0.0,5.6,57,0.00,,,0.00,WUHU21623XXSP,2013-02-12 07:35:00,
2013-02-12 01:40:00,23.2,10.1,30.06,WSW,247,3.1,5.6,57,0.00,,,0.00,WUHU21623XXSP,2013-02-12 07:40:00,
2013-02-12 01:45:00,23.2,10.1,30.06,West,270,2.0,3.4,57,0.00,,,0.00,WUHU21623XXSP,2013-02-12 07:45:00,
2013-02-12 01:50:00,23.2,10.1,30.06,WSW,247,3.6,3.6,57,0.00,,,0.00,WUHU21623XXSP,2013-02-12 07:50:00,
2013-02-12 01:55:00,23.2,10.5,30.06,WNW,292,2.7,3.6,58,0.00,,,0.00,WUHU21623XXSP,2013-02-12 07:55:00,
2013-02-12 02:00:00,23.0,9.9,30.06,WNW,292,2.7,11.2,57,0.00,,,0.00,WUHU21623XXSP,2013-02-12 08:00:00,
2013-02-12 02:05:00,22.8,9.8,30.06,WSW,247,4.3,11.2,57,0.00,,,0.00,WUHU21623XXSP,2013-02-12 08:05:00,
2013-02-12 02:10:00,22.6,9.6,30.06,WNW,292,8.1,8.1,57,0.00,,,0.00,WUHU21623XXSP,2013-02-12 08:10:00,
2013-02-12 02:15:00,22.5,9.4,30.07,West,270,0.0,8.1,57,0.00,,,0.00,WUHU21623XXSP,2013-02-12 08:15:00,
2013-02-12 02:20:00,22.5,9.4,30.07,SW,225,3.4,8.1,57,0.00,,,0.00,WUHU21623XXSP,2013-02-12 08:20:00,
2013-02-12 02:25:00,22.6,9.6,30.06,West,270,1.6,4.7,57,0.00,,,0.00,WUHU21623XXSP,2013-02-12 08:25:00,
2013-02-12 02:30:00,22.5,9.4,30.06,NW,315,6.5,6.5,57,0.00,,,0.00,WUHU21623XXSP,2013-02-12 08:30:00,
2013-02-12 02:35:00,22.6,9.6,30.06,NNE,22,0.0,6.5,57,0.00,,,0.00,WUHU21623XXSP,2013-02-12 08:35:00,
2013-02-12 02:40:00,22.5,9.4,30.06,NW,315,0.0,3.1,57,0.00,,,0.00,WUHU21623XXSP,2013-02-12 08:40:00,
2013-02-12 02:45:00,22.6,9.6,30.06,NNW,337,0.9,3.4,57,0.00,,,0.00,WUHU21623XXSP,2013-02-12 08:45:00,
2013-02-12 02:50:00,22.6,10.0,30.06,West,270,3.1,3.4,58,0.00,,,0.00,WUHU21623XXSP,2013-02-12 08:50:00,
2013-02-12 02:55:00,22.6,10.0,30.06,WNW,292,6.7,6.7,58,0.00,,,0.00,WUHU21623XXSP,2013-02-12 08:55:00,
2013-02-12 03:00:00,22.8,10.1,30.06,West,270,5.1,6.7,58,0.00,,,0.00,WUHU21623XXSP,2013-02-12 09:00:00,
2013-02-12 03:05:00,22.6,10.0,30.06,West,270,5.1,6.0,58,0.00,,,0.00,WUHU21623XXSP,2013-02-12 09:05:00,
2013-02-12 03:10:00,22.6,10.0,30.06,West,270,8.3,8.3,58,0.00,,,0.00,WUHU21623XXSP,2013-02-12 09:10:00,
2013-02-12 03:15:00,22.6,10.0,30.06,West,270,10.1,11.0,58,0.00,,,0.00,WUHU21623XXSP,2013-02-12 09:15:00,
2013-02-12 03:20:00,22.6,10.0,30.06,WSW,247,1.8,11.0,58,0.00,,,0.00,WUHU21623XXSP,2013-02-12 09:20:00,
2013-02-12 03:25:00,22.6,10.0,30.06,West,270,0.0,4.5,58,0.00,,,0.00,WUHU21623XXSP,2013-02-12 09:25:00,
2013-02-12 03:30:00,22.8,10.1,30.06,WNW,292,0.9,4.5,58,0.00,,,0.00,WUHU21623XXSP,2013-02-12 09:30:00,
2013-02-12 03:35:00,22.8,10.5,30.07,West,270,1.8,2.5,59,0.00,,,0.00,WUHU21623XXSP,2013-02-12 09:35:00,
2013-02-12 03:40:00,23.0,10.7,30.07,West,270,4.0,4.0,59,0.00,,,0.00,WUHU21623XXSP,2013-02-12 09:40:00,
2013-02-12 03:45:00,23.0,10.7,30.06,WSW,247,0.0,4.0,59,0.00,,,0.00,WUHU21623XXSP,2013-02-12 09:45:00,
2013-02-12 03:50:00,23.0,10.7,30.06,WSW,247,2.5,4.0,59,0.00,,,0.00,WUHU21623XXSP,2013-02-12 09:50:00,
2013-02-12 03:55:00,22.8,10.5,30.07,WSW,247,5.1,5.1,59,0.00,,,0.00,WUHU21623XXSP,2013-02-12 09:55:00,
2013-02-12 04:00:00,22.8,10.5,30.07,WNW,292,0.0,5.1,59,0.00,,,0.00,WUHU21623XXSP,2013-02-12 10:00:00,
2013-02-12 04:05:00,23.0,10.7,30.06,WSW,247,2.9,2.9,59,0.00,,,0.00,WUHU21623XXSP,2013-02-12 10:05:00,
2013-02-12 04:10:00,23.0,10.7,30.06,WNW,292,1.3,2.9,59,0.00,,,0.00,WUHU21623XXSP,2013-02-12 10:10:00,
2013-02-12 04:15:00,22.6,10.4,30.06,West,270,5.6,5.6,59,0.00,,,0.00,WUHU21623XXSP,2013-02-12 10:15:00,
2013-02-12 04:20:00,22.8,10.5,30.06,West,270,0.0,5.6,59,0.00,,,0.00,WUHU21623XXSP,2013-02-12 10:20:00,
2013-02-12 04:25:00,22.8,10.5,30.05,NW,315,5.1,5.1,59,0.00,,,0.00,WUHU21623XXSP,2013-02-12 10:25:00,
2013-02-12 04:30:00,22.8,10.5,30.05,WSW,247,1.8,5.1,59,0.00,,,0.00,WUHU21623XXSP,2013-02-12 10:30:00,
2013-02-12 04:35:00,22.6,10.4,30.06,West,270,0.0,4.0,59,0.00,,,0.00,WUHU21623XXSP,2013-02-12 10:35:00,
2013-02-12 04:40:00,22.5,10.2,30.06,NW,315,5.6,5.6,59,0.00,,,0.00,WUHU21623XXSP,2013-02-12 10:40:00,
2013-02-12 04:45:00,22.1,9.9,30.06,WSW,247,4.7,5.6,59,0.00,,,0.00,WUHU21623XXSP,2013-02-12 10:45:00,
2013-02-12 04:50:00,22.1,9.9,30.06,West,270,2.7,4.7,59,0.00,,,0.00,WUHU21623XXSP,2013-02-12 10:50:00,
2013-02-12 04:55:00,22.1,9.9,30.06,West,270,0.9,2.7,59,0.00,,,0.00,WUHU21623XXSP,2013-02-12 10:55:00,
2013-02-12 05:00:00,22.1,9.9,30.06,WNW,292,6.9,6.9,59,0.00,,,0.00,WUHU21623XXSP,2013-02-12 11:00:00,
2013-02-12 05:05:00,22.1,9.9,30.06,West,270,2.0,6.9,59,0.00,,,0.00,WUHU21623XXSP,2013-02-12 11:05:00,
2013-02-12 05:10:00,22.1,9.9,30.06,NW,315,3.8,6.9,59,0.00,,,0.00,WUHU21623XXSP,2013-02-12 11:10:00,
2013-02-12 05:15:00,22.1,10.3,30.06,West,270,0.0,3.8,60,0.00,,,0.00,WUHU21623XXSP,2013-02-12 11:15:00,
2013-02-12 05:20:00,22.1,10.3,30.06,WNW,292,0.0,2.9,60,0.00,,,0.00,WUHU21623XXSP,2013-02-12 11:20:00,
2013-02-12 05:25:00,22.3,10.5,30.06,WSW,247,0.0,3.6,60,0.00,,,0.00,WUHU21623XXSP,2013-02-12 11:25:00,
2013-02-12 05:30:00,22.3,10.5,30.06,NW,315,6.3,6.3,60,0.00,,,0.00,WUHU21623XXSP,2013-02-12 11:30:00,
2013-02-12 05:35:00,22.3,10.5,30.06,WNW,292,0.0,12.8,60,0.00,,,0.00,WUHU21623XXSP,2013-02-12 11:35:00,
2013-02-12 05:40:00,22.1,10.3,30.06,WSW,247,0.7,12.8,60,0.00,,,0.00,WUHU21623XXSP,2013-02-12 11:40:00,
2013-02-12 05:45:00,22.1,10.3,30.06,WSW,247,2.2,2.2,60,0.00,,,0.00,WUHU21623XXSP,2013-02-12 11:45:00,
2013-02-12 05:50:00,22.3,10.5,30.06,West,270,0.0,2.2,60,0.00,,,0.00,WUHU21623XXSP,2013-02-12 11:50:00,
2013-02-12 05:55:00,22.3,10.5,30.06,WSW,247,0.2,1.3,60,0.00,,,0.00,WUHU21623XXSP,2013-02-12 11:55:00,
2013-02-12 06:00:00,22.3,10.5,30.06,West,270,0.9,1.3,60,0.00,,,0.00,WUHU21623XXSP,2013-02-12 12:00:00,
2013-02-12 06:05:00,22.3,10.5,30.05,WSW,247,0.2,2.5,60,0.00,,,0.00,WUHU21623XXSP,2013-02-12 12:05:00,
2013-02-12 06:10:00,22.5,11.0,30.05,West,270,6.0,6.0,61,0.00,,,0.00,WUHU21623XXSP,2013-02-12 12:10:00,
2013-02-12 06:15:00,22.5,11.0,30.04,WSW,247,1.8,6.0,61,0.00,,,0.00,WUHU21623XXSP,2013-02-12 12:15:00,
2013-02-12 06:20:00,22.5,11.0,30.04,WSW,247,0.0,1.8,61,0.00,,,0.00,WUHU21623XXSP,2013-02-12 12:20:00,
2013-02-12 06:25:00,22.5,11.0,30.04,WNW,292,2.9,4.7,61,0.00,,,0.00,WUHU21623XXSP,2013-02-12 12:25:00,
2013-02-12 06:30:00,22.5,11.0,30.04,WNW,292,0.0,4.7,61,0.00,,,0.00,WUHU21623XXSP,2013-02-12 12:30:00,
2013-02-12 06:35:00,22.5,11.0,30.04,West,270,3.6,3.6,61,0.00,,,0.00,WUHU21623XXSP,2013-02-12 12:35:00,
2013-02-12 06:40:00,22.3,10.8,30.04,West,270,4.9,4.9,61,0.00,,,0.00,WUHU21623XXSP,2013-02-12 12:40:00,
2013-02-12 06:45:00,22.3,10.5,30.05,West,270,4.3,5.4,60,0.00,,,0.00,WUHU21623XXSP,2013-02-12 12:45:00,
2013-02-12 06:50:00,22.3,10.5,30.05,WSW,247,6.5,6.5,60,0.00,,,0.00,WUHU21623XXSP,2013-02-12 12:50:00,
2013-02-12 06:55:00,22.3,10.5,30.05,WSW,247,4.5,6.5,60,0.00,,,0.00,WUHU21623XXSP,2013-02-12 12:55:00,
2013-02-12 07:00:00,22.5,11.0,30.06,WSW,247,2.5,4.5,61,0.00,,,0.00,WUHU21623XXSP,2013-02-12 13:00:00,
2013-02-12 07:05:00,22.5,11.0,30.06,West,270,0.9,2.5,61,0.00,,,0.00,WUHU21623XXSP,2013-02-12 13:05:00,
2013-02-12 07:10:00,22.5,11.0,30.06,WNW,292,4.7,4.7,61,0.00,,,0.00,WUHU21623XXSP,2013-02-12 13:10:00,
2013-02-12 07:15:00,22.5,11.0,30.06,WNW,292,0.0,4.7,61,0.00,,,0.00,WUHU21623XXSP,2013-02-12 13:15:00,
2013-02-12 07:20:00,22.6,11.1,30.07,SW,225,0.0,2.5,61,0.00,,,0.00,WUHU21623XXSP,2013-02-12 13:20:00,
2013-02-12 07:25:00,22.6,11.1,30.06,WSW,247,1.1,1.1,61,0.00,,,0.00,WUHU21623XXSP,2013-02-12 13:25:00,
2013-02-12 07:30:00,22.6,11.1,30.06,WSW,247,0.0,1.3,61,0.00,,,0.00,WUHU21623XXSP,2013-02-12 13:30:00,
2013-02-12 07:35:00,22.8,11.3,30.06,West,270,0.0,1.3,61,0.00,,,0.00,WUHU21623XXSP,2013-02-12 13:35:00,
2013-02-12 07:40:00,22.8,11.3,30.06,WNW,292,0.4,0.9,61,0.00,,,0.00,WUHU21623XXSP,2013-02-12 13:40:00,
2013-02-12 07:45:00,23.2,11.6,30.05,NW,315,0.0,0.9,61,0.00,,,0.00,WUHU21623XXSP,2013-02-12 13:45:00,
2013-02-12 07:50:00,23.2,12.0,30.05,West,270,2.0,2.7,62,0.00,,,0.00,WUHU21623XXSP,2013-02-12 13:50:00,
2013-02-12 07:55:00,23.2,11.6,30.06,SW,225,0.0,5.1,61,0.00,,,0.00,WUHU21623XXSP,2013-02-12 13:55:00,
2013-02-12 08:00:00,23.2,11.6,30.06,NW,315,3.1,5.1,61,0.00,,,0.00,WUHU21623XXSP,2013-02-12 14:00:00,
2013-02-12 08:05:00,23.4,11.8,30.06,NW,315,0.0,3.1,61,0.00,,,0.00,WUHU21623XXSP,2013-02-12 14:05:00,
2013-02-12 08:10:00,23.4,11.8,30.06,West,270,0.0,1.8,61,0.00,,,0.00,WUHU21623XXSP,2013-02-12 14:10:00,
2013-02-12 08:15:00,23.4,11.8,30.07,West,270,0.0,1.8,61,0.00,,,0.00,WUHU21623XXSP,2013-02-12 14:15:00,
2013-02-12 08:20:00,23.4,11.8,30.07,WSW,247,2.2,2.2,61,0.00,,,0.00,WUHU21623XXSP,2013-02-12 14:20:00,
2013-02-12 08:25:00,23.5,12.0,30.06,West,270,0.9,2.2,61,0.00,,,0.00,WUHU21623XXSP,2013-02-12 14:25:00,
2013-02-12 08:30:00,23.7,12.2,30.07,West,270,2.0,5.4,61,0.00,,,0.00,WUHU21623XXSP,2013-02-12 14:30:00,
2013-02-12 08:35:00,23.9,12.4,30.07,WNW,292,4.3,5.4,61,0.00,,,0.00,WUHU21623XXSP,2013-02-12 14:35:00,
2013-02-12 08:40:00,24.1,12.5,30.07,NW,315,0.0,4.3,61,0.00,,,0.00,WUHU21623XXSP,2013-02-12 14:40:00,
2013-02-12 08:45:00,24.3,12.7,30.07,WSW,247,1.8,6.0,61,0.00,,,0.00,WUHU21623XXSP,2013-02-12 14:45:00,
2013-02-12 08:50:00,24.1,12.5,30.07,NW,315,0.0,6.0,61,0.00,,,0.00,WUHU21623XXSP,2013-02-12 14:50:00,
2013-02-12 08:55:00,24.3,12.7,30.06,WNW,292,5.4,5.4,61,0.00,,,0.00,WUHU21623XXSP,2013-02-12 14:55:00,
2013-02-12 09:00:00,24.1,12.5,30.07,WNW,292,0.7,5.4,61,0.00,,,0.00,WUHU21623XXSP,2013-02-12 15:00:00,
2013-02-12 09:05:00,24.3,12.2,30.06,NW,315,2.2,2.2,61,0.00,,,0.00,WUHU21623XXSP,2013-02-12 15:05:00,
2013-02-12 09:10:00,24.1,12.2,30.06,WNW,292,0.0,2.5,60,0.00,,,0.00,WUHU21623XXSP,2013-02-12 15:10:00,
2013-02-12 09:15:00,24.3,12.4,30.07,West,270,0.0,2.5,60,0.00,,,0.00,WUHU21623XXSP,2013-02-12 15:15:00,
2013-02-12 09:20:00,24.1,12.2,30.06,West,270,0.0,2.5,60,0.00,,,0.00,WUHU21623XXSP,2013-02-12 15:20:00,
2013-02-12 09:25:00,23.9,12.0,30.07,WSW,247,4.7,4.7,60,0.00,,,0.00,WUHU21623XXSP,2013-02-12 15:25:00,
2013-02-12 09:30:00,23.7,11.4,30.07,WNW,292,3.6,4.7,59,0.00,,,0.00,WUHU21623XXSP,2013-02-12 15:30:00,
2013-02-12 09:35:00,23.7,11.4,30.07,West,270,0.0,4.3,59,0.00,,,0.00,WUHU21623XXSP,2013-02-12 15:35:00,
2013-02-12 09:40:00,23.5,11.2,30.07,West,270,0.0,4.9,59,0.00,,,0.00,WUHU21623XXSP,2013-02-12 15:40:00,
2013-02-12 09:45:00,23.5,11.2,30.06,West,270,0.0,4.9,59,0.00,,,0.00,WUHU21623XXSP,2013-02-12 15:45:00,
2013-02-12 09:50:00,23.7,11.4,30.06,West,270,5.4,5.4,59,0.00,,,0.00,WUHU21623XXSP,2013-02-12 15:50:00,
2013-02-12 09:55:00,23.7,11.4,30.06,West,270,2.7,5.4,59,0.00,,,0.00,WUHU21623XXSP,2013-02-12 15:55:00,
2013-02-12 10:00:00,23.9,11.2,30.06,WSW,247,0.0,3.8,58,0.00,,,0.00,WUHU21623XXSP,2013-02-12 16:00:00,
2013-02-12 10:05:00,23.9,11.2,30.07,WNW,292,6.9,6.9,58,0.00,,,0.00,WUHU21623XXSP,2013-02-12 16:05:00,
2013-02-12 10:10:00,23.9,11.2,30.07,SW,225,1.3,6.9,58,0.00,,,0.00,WUHU21623XXSP,2013-02-12 16:10:00,
2013-02-12 10:15:00,23.9,11.2,30.07,NW,315,4.3,5.6,58,0.00,,,0.00,WUHU21623XXSP,2013-02-12 16:15:00,
2013-02-12 10:20:00,24.1,11.0,30.07,West,270,0.0,4.3,57,0.00,,,0.00,WUHU21623XXSP,2013-02-12 16:20:00,
2013-02-12 10:25:00,24.4,11.3,30.08,NW,315,5.6,5.6,57,0.00,,,0.00,WUHU21623XXSP,2013-02-12 16:25:00,
2013-02-12 10:30:00,24.6,11.5,30.07,WNW,292,0.7,5.6,57,0.00,,,0.00,WUHU21623XXSP,2013-02-12 16:30:00,
2013-02-12 10:35:00,25.0,11.8,30.07,WSW,247,3.6,3.6,57,0.00,,,0.00,WUHU21623XXSP,2013-02-12 16:35:00,
2013-02-12 10:40:00,25.0,11.8,30.06,West,270,5.1,5.1,57,0.00,,,0.00,WUHU21623XXSP,2013-02-12 16:40:00,
2013-02-12 10:45:00,24.6,11.1,30.07,West,270,1.6,5.1,56,0.00,,,0.00,WUHU21623XXSP,2013-02-12 16:45:00,
2013-02-12 10:50:00,24.8,11.3,30.08,WNW,292,2.9,4.3,56,0.00,,,0.00,WUHU21623XXSP,2013-02-12 16:50:00,
2013-02-12 10:55:00,25.0,11.4,30.08,NW,315,3.4,3.4,56,0.00,,,0.00,WUHU21623XXSP,2013-02-12 16:55:00,
2013-02-12 11:00:00,25.2,11.6,30.07,NNW,337,0.0,4.7,56,0.00,,,0.00,WUHU21623XXSP,2013-02-12 17:00:00,
2013-02-12 11:05:00,25.5,11.9,30.07,NW,315,0.0,4.7,56,0.00,,,0.00,WUHU21623XXSP,2013-02-12 17:05:00,
2013-02-12 11:10:00,25.7,12.1,30.07,NW,315,7.2,7.2,56,0.00,,,0.00,WUHU21623XXSP,2013-02-12 17:10:00,
2013-02-12 11:15:00,25.7,11.7,30.06,West,270,2.9,7.2,55,0.00,,,0.00,WUHU21623XXSP,2013-02-12 17:15:00,
2013-02-12 11:20:00,26.2,12.1,30.06,NW,315,0.0,2.9,55,0.00,,,0.00,WUHU21623XXSP,2013-02-12 17:20:00,
2013-02-12 11:25:00,26.2,12.1,30.06,NW,315,5.1,5.1,55,0.00,,,0.00,WUHU21623XXSP,2013-02-12 17:25:00,
2013-02-12 11:30:00,26.8,12.6,30.05,NW,315,0.0,5.1,55,0.00,,,0.00,WUHU21623XXSP,2013-02-12 17:30:00,
2013-02-12 11:35:00,27.1,13.0,30.05,NW,315,0.0,2.2,55,0.00,,,0.00,WUHU21623XXSP,2013-02-12 17:35:00,
2013-02-12 11:40:00,27.5,13.4,30.05,WNW,292,6.0,6.0,55,0.00,,,0.00,WUHU21623XXSP,2013-02-12 17:40:00,
2013-02-12 11:45:00,27.9,13.3,30.04,WNW,292,0.0,6.0,54,0.00,,,0.00,WUHU21623XXSP,2013-02-12 17:45:00,
2013-02-12 11:50:00,28.6,14.4,30.04,NW,315,2.5,2.5,55,0.00,,,0.00,WUHU21623XXSP,2013-02-12 17:50:00,
2013-02-12 11:55:00,28.8,14.2,30.04,West,270,1.6,2.5,54,0.00,,,0.00,WUHU21623XXSP,2013-02-12 17:55:00,
2013-02-12 12:00:00,28.6,13.6,30.04,West,270,4.9,4.9,53,0.00,,,0.00,WUHU21623XXSP,2013-02-12 18:00:00,
2013-02-12 12:05:00,28.9,13.5,30.03,West,270,0.0,4.9,52,0.00,,,0.00,WUHU21623XXSP,2013-02-12 18:05:00,
2013-02-12 12:10:00,28.8,13.5,30.03,WSW,247,6.0,6.0,51,0.00,,,0.00,WUHU21623XXSP,2013-02-12 18:10:00,
2013-02-12 12:15:00,28.8,12.9,30.03,NNW,337,0.0,6.0,51,0.00,,,0.00,WUHU21623XXSP,2013-02-12 18:15:00,
2013-02-12 12:20:00,29.1,13.3,30.02,WSW,247,2.2,2.7,51,0.00,,,0.00,WUHU21623XXSP,2013-02-12 18:20:00,
2013-02-12 12:25:00,29.3,13.4,30.02,WSW,247,1.3,6.0,51,0.00,,,0.00,WUHU21623XXSP,2013-02-12 18:25:00,
2013-02-12 12:30:00,29.3,13.0,30.02,WSW,247,2.2,6.0,50,0.00,,,0.00,WUHU21623XXSP,2013-02-12 18:30:00,
2013-02-12 12:35:00,29.5,13.2,30.01,NNW,337,1.3,3.4,50,0.00,,,0.00,WUHU21623XXSP,2013-02-12 18:35:00,
2013-02-12 12:40:00,29.8,13.5,30.01,West,270,5.1,5.1,50,0.00,,,0.00,WUHU21623XXSP,2013-02-12 18:40:00,
2013-02-12 12:45:00,30.0,13.7,30.01,West,270,4.5,5.1,50,0.00,,,0.00,WUHU21623XXSP,2013-02-12 18:45:00,
2013-02-12 12:50:00,30.4,14.0,30.01,West,270,6.0,6.0,50,0.00,,,0.00,WUHU21623XXSP,2013-02-12 18:50:00,
2013-02-12 12:55:00,31.1,15.0,30.00,WSW,247,0.0,6.0,51,0.00,,,0.00,WUHU21623XXSP,2013-02-12 18:55:00,
2013-02-12 13:00:00,31.5,15.0,30.01,West,270,4.0,4.0,50,0.00,,,0.00,WUHU21623XXSP,2013-02-12 19:00:00,
2013-02-12 13:05:00,31.3,13.8,30.00,SW,225,1.8,4.9,48,0.00,,,0.00,WUHU21623XXSP,2013-02-12 19:05:00,
2013-02-12 13:10:00,32.2,15.1,29.98,SW,225,0.9,4.9,49,0.00,,,0.00,WUHU21623XXSP,2013-02-12 19:10:00,
2013-02-12 13:15:00,32.5,15.4,30.00,NW,315,3.6,3.6,49,0.00,,,0.00,WUHU21623XXSP,2013-02-12 19:15:00,
2013-02-12 13:20:00,33.4,16.2,30.00,WNW,292,4.0,4.0,49,0.00,,,0.00,WUHU21623XXSP,2013-02-12 19:20:00,
2013-02-12 13:25:00,33.4,15.2,30.00,WSW,247,0.7,4.0,47,0.00,,,0.00,WUHU21623XXSP,2013-02-12 19:25:00,
2013-02-12 13:30:00,33.4,14.7,30.00,SW,225,0.0,3.6,46,0.00,,,0.00,WUHU21623XXSP,2013-02-12 19:30:00,
2013-02-12 13:35:00,33.8,15.5,29.99,WSW,247,0.0,3.6,47,0.00,,,0.00,WUHU21623XXSP,2013-02-12 19:35:00,
2013-02-12 13:40:00,33.8,15.0,29.99,West,270,0.0,3.1,46,0.00,,,0.00,WUHU21623XXSP,2013-02-12 19:40:00,
2013-02-12 13:45:00,34.0,15.2,29.99,West,270,0.0,3.1,46,0.00,,,0.00,WUHU21623XXSP,2013-02-12 19:45:00,
2013-02-12 13:50:00,34.5,15.7,29.99,SW,225,0.0,1.3,46,0.00,,,0.00,WUHU21623XXSP,2013-02-12 19:50:00,
2013-02-12 13:55:00,34.5,15.7,29.99,SSW,202,4.0,4.0,46,0.00,,,0.00,WUHU21623XXSP,2013-02-12 19:55:00,
2013-02-12 14:00:00,34.5,15.2,29.98,WSW,247,0.0,4.0,45,0.00,,,0.00,WUHU21623XXSP,2013-02-12 20:00:00,
2013-02-12 14:05:00,34.7,15.4,29.99,WSW,247,0.0,3.1,45,0.00,,,0.00,WUHU21623XXSP,2013-02-12 20:05:00,
2013-02-12 14:10:00,34.7,15.4,29.99,South,180,3.4,3.4,45,0.00,,,0.00,WUHU21623XXSP,2013-02-12 20:10:00,
2013-02-12 14:15:00,34.7,15.4,29.98,SW,225,0.9,3.4,45,0.00,,,0.00,WUHU21623XXSP,2013-02-12 20:15:00,
2013-02-12 14:20:00,34.5,15.2,29.98,SW,225,2.2,3.4,45,0.00,,,0.00,WUHU21623XXSP,2013-02-12 20:20:00,
2013-02-12 14:25:00,34.5,15.2,29.98,NW,315,0.0,2.2,45,0.00,,,0.00,WUHU21623XXSP,2013-02-12 20:25:00,
2013-02-12 14:30:00,35.1,16.3,29.97,SW,225,2.0,2.0,46,0.00,,,0.00,WUHU21623XXSP,2013-02-12 20:30:00,
2013-02-12 14:35:00,35.2,16.4,29.97,WSW,247,0.0,2.0,46,0.00,,,0.00,WUHU21623XXSP,2013-02-12 20:35:00,
2013-02-12 14:40:00,35.1,15.7,29.97,South,180,0.4,0.4,45,0.00,,,0.00,WUHU21623XXSP,2013-02-12 20:40:00,
2013-02-12 14:45:00,34.9,15.6,29.97,SSW,202,1.3,2.9,45,0.00,,,0.00,WUHU21623XXSP,2013-02-12 20:45:00,
2013-02-12 14:50:00,34.9,15.6,29.97,SSW,202,0.0,2.9,45,0.00,,,0.00,WUHU21623XXSP,2013-02-12 20:50:00,
2013-02-12 14:55:00,35.1,16.3,29.97,SSW,202,0.2,1.8,46,0.00,,,0.00,WUHU21623XXSP,2013-02-12 20:55:00,
2013-02-12 15:00:00,35.2,16.4,29.97,South,180,2.0,6.3,46,0.00,,,0.00,WUHU21623XXSP,2013-02-12 21:00:00,
2013-02-12 15:05:00,35.2,15.9,29.97,WSW,247,3.6,6.3,45,0.00,,,0.00,WUHU21623XXSP,2013-02-12 21:05:00,
2013-02-12 15:10:00,35.1,15.7,29.98,SSW,202,0.0,3.6,45,0.00,,,0.00,WUHU21623XXSP,2013-02-12 21:10:00,
2013-02-12 15:15:00,35.6,16.8,29.97,WSW,247,0.9,6.0,46,0.00,,,0.00,WUHU21623XXSP,2013-02-12 21:15:00,
2013-02-12 15:20:00,36.0,17.1,29.97,SW,225,4.0,6.0,46,0.00,,,0.00,WUHU21623XXSP,2013-02-12 21:20:00,
2013-02-12 15:25:00,35.2,15.9,29.97,West,270,0.0,4.0,45,0.00,,,0.00,WUHU21623XXSP,2013-02-12 21:25:00,
2013-02-12 15:30:00,36.1,17.8,29.97,South,180,0.0,0.9,47,0.00,,,0.00,WUHU21623XXSP,2013-02-12 21:30:00,
2013-02-12 15:35:00,35.8,16.9,29.96,SW,225,2.2,2.2,46,0.00,,,0.00,WUHU21623XXSP,2013-02-12 21:35:00,
2013-02-12 15:40:00,35.8,16.9,29.96,SSW,202,0.7,2.2,46,0.00,,,0.00,WUHU21623XXSP,2013-02-12 21:40:00,
2013-02-12 15:45:00,35.1,16.3,29.96,SW,225,2.9,2.9,46,0.00,,,0.00,WUHU21623XXSP,2013-02-12 21:45:00,
2013-02-12 15:50:00,34.7,15.9,29.96,WSW,247,3.8,3.8,46,0.00,,,0.00,WUHU21623XXSP,2013-02-12 21:50:00,
2013-02-12 15:55:00,34.0,15.2,29.96,WSW,247,0.0,3.8,46,0.00,,,0.00,WUHU21623XXSP,2013-02-12 21:55:00,
2013-02-12 16:00:00,33.4,15.7,29.96,SW,225,1.6,3.8,48,0.00,,,0.00,WUHU21623XXSP,2013-02-12 22:00:00,
2013-02-12 16:05:00,33.4,16.2,29.95,WSW,247,0.7,3.8,49,0.00,,,0.00,WUHU21623XXSP,2013-02-12 22:05:00,
2013-02-12 16:10:00,33.4,16.7,29.96,SSW,202,2.0,2.0,50,0.00,,,0.00,WUHU21623XXSP,2013-02-12 22:10:00,
2013-02-12 16:15:00,33.6,16.9,29.96,SW,225,0.9,2.0,50,0.00,,,0.00,WUHU21623XXSP,2013-02-12 22:15:00,
2013-02-12 16:20:00,33.8,17.1,29.95,SW,225,0.0,1.1,50,0.00,,,0.00,WUHU21623XXSP,2013-02-12 22:20:00,
2013-02-12 16:25:00,34.2,17.9,29.95,SW,225,0.9,1.1,51,0.00,,,0.00,WUHU21623XXSP,2013-02-12 22:25:00,
2013-02-12 16:30:00,34.2,17.4,29.95,SW,225,0.4,5.1,50,0.00,,,0.00,WUHU21623XXSP,2013-02-12 22:30:00,
2013-02-12 16:35:00,34.0,17.2,29.95,SSW,202,1.3,5.1,50,0.00,,,0.00,WUHU21623XXSP,2013-02-12 22:35:00,
2013-02-12 16:40:00,33.4,17.2,29.95,SSW,202,2.0,2.0,51,0.00,,,0.00,WUHU21623XXSP,2013-02-12 22:40:00,
2013-02-12 16:45:00,32.9,17.1,29.95,SW,225,2.5,2.5,52,0.00,,,0.00,WUHU21623XXSP,2013-02-12 22:45:00,
2013-02-12 16:50:00,32.5,16.8,29.95,South,180,4.0,4.0,52,0.00,,,0.00,WUHU21623XXSP,2013-02-12 22:50:00,
2013-02-12 16:55:00,32.4,16.6,29.94,SSW,202,0.0,4.0,52,0.00,,,0.00,WUHU21623XXSP,2013-02-12 22:55:00,
2013-02-12 17:00:00,32.2,16.9,29.94,SSW,202,0.4,2.5,53,0.00,,,0.00,WUHU21623XXSP,2013-02-12 23:00:00,
2013-02-12 17:05:00,31.8,17.0,29.95,SW,225,0.7,0.7,54,0.00,,,0.00,WUHU21623XXSP,2013-02-12 23:05:00,
2013-02-12 17:10:00,31.6,16.8,29.94,WSW,247,0.0,0.7,54,0.00,,,0.00,WUHU21623XXSP,2013-02-12 23:10:00,
2013-02-12 17:15:00,31.3,16.5,29.94,SSW,202,0.0,0.0,54,0.00,,,0.00,WUHU21623XXSP,2013-02-12 23:15:00,
2013-02-12 17:20:00,31.1,16.7,29.94,SSW,202,0.0,0.0,55,0.00,,,0.00,WUHU21623XXSP,2013-02-12 23:20:00,
2013-02-12 17:25:00,30.9,16.6,29.94,SW,225,0.0,0.0,55,0.00,,,0.00,WUHU21623XXSP,2013-02-12 23:25:00,
2013-02-12 17:30:00,30.9,16.6,29.94,SSW,202,0.0,0.0,55,0.00,,,0.00,WUHU21623XXSP,2013-02-12 23:30:00,
2013-02-12 17:35:00,30.7,16.4,29.94,South,180,0.0,0.0,55,0.00,,,0.00,WUHU21623XXSP,2013-02-12 23:35:00,
2013-02-12 17:40:00,30.6,16.6,29.94,South,180,0.0,0.0,56,0.00,,,0.00,WUHU21623XXSP,2013-02-12 23:40:00,
2013-02-12 17:45:00,30.4,16.5,29.93,South,180,0.0,0.0,56,0.00,,,0.00,WUHU21623XXSP,2013-02-12 23:45:00,
2013-02-12 17:50:00,30.0,16.6,29.93,SSW,202,0.0,0.0,57,0.00,,,0.00,WUHU21623XXSP,2013-02-12 23:50:00,
2013-02-12 17:55:00,29.8,16.4,29.93,South,180,0.0,0.0,57,0.00,,,0.00,WUHU21623XXSP,2013-02-12 23:55:00,
2013-02-12 18:00:00,29.7,16.6,29.93,South,180,0.0,0.0,58,0.00,,,0.00,WUHU21623XXSP,2013-02-13 00:00:00,
2013-02-12 18:05:00,29.7,16.6,29.93,South,180,0.0,0.0,58,0.00,,,0.00,WUHU21623XXSP,2013-02-13 00:05:00,
2013-02-12 18:10:00,29.3,16.3,29.93,South,180,0.0,0.0,58,0.00,,,0.00,WUHU21623XXSP,2013-02-13 00:10:00,
2013-02-12 18:15:00,29.3,16.3,29.93,South,180,0.0,0.0,58,0.00,,,0.00,WUHU21623XXSP,2013-02-13 00:15:00,
2013-02-12 18:20:00,29.1,16.6,29.93,South,180,0.0,0.0,59,0.00,,,0.00,WUHU21623XXSP,2013-02-13 00:20:00,
2013-02-12 18:25:00,29.1,16.6,29.93,South,180,0.0,0.0,59,0.00,,,0.00,WUHU21623XXSP,2013-02-13 00:25:00,
2013-02-12 18:30:00,28.8,16.7,29.92,South,180,0.0,0.0,60,0.00,,,0.00,WUHU21623XXSP,2013-02-13 00:30:00,
2013-02-12 18:35:00,28.8,16.7,29.92,South,180,0.0,0.0,60,0.00,,,0.00,WUHU21623XXSP,2013-02-13 00:35:00,
2013-02-12 18:40:00,28.6,16.5,29.92,South,180,0.0,0.0,60,0.00,,,0.00,WUHU21623XXSP,2013-02-13 00:40:00,
2013-02-12 18:45:00,28.6,16.9,29.92,South,180,0.0,0.0,61,0.00,,,0.00,WUHU21623XXSP,2013-02-13 00:45:00,
2013-02-12 18:50:00,28.6,16.9,29.92,South,180,0.0,0.0,61,0.00,,,0.00,WUHU21623XXSP,2013-02-13 00:50:00,
2013-02-12 18:55:00,28.2,16.5,29.92,South,180,0.0,0.0,61,0.00,,,0.00,WUHU21623XXSP,2013-02-13 00:55:00,
2013-02-12 19:00:00,28.0,16.3,29.92,SW,225,0.0,0.0,61,0.00,,,0.00,WUHU21623XXSP,2013-02-13 01:00:00,
2013-02-12 19:05:00,28.0,16.7,29.91,SW,225,0.0,0.0,62,0.00,,,0.00,WUHU21623XXSP,2013-02-13 01:05:00,
2013-02-12 19:10:00,28.0,16.7,29.92,South,180,0.0,0.0,62,0.00,,,0.00,WUHU21623XXSP,2013-02-13 01:10:00,
2013-02-12 19:15:00,27.9,16.5,29.92,SW,225,0.0,0.0,62,0.00,,,0.00,WUHU21623XXSP,2013-02-13 01:15:00,
2013-02-12 19:20:00,27.9,16.5,29.91,SSW,202,0.0,0.0,62,0.00,,,0.00,WUHU21623XXSP,2013-02-13 01:20:00,
2013-02-12 19:25:00,27.7,16.7,29.91,South,180,0.0,0.0,63,0.00,,,0.00,WUHU21623XXSP,2013-02-13 01:25:00,
2013-02-12 19:30:00,27.7,16.7,29.91,SSE,157,0.0,0.0,63,0.00,,,0.00,WUHU21623XXSP,2013-02-13 01:30:00,
2013-02-12 19:35:00,27.5,16.5,29.92,SSW,202,0.0,0.0,63,0.00,,,0.00,WUHU21623XXSP,2013-02-13 01:35:00,
2013-02-12 19:40:00,27.5,16.5,29.92,South,180,0.0,0.0,63,0.00,,,0.00,WUHU21623XXSP,2013-02-13 01:40:00,
2013-02-12 19:45:00,27.5,16.5,29.92,South,180,0.0,0.0,63,0.00,,,0.00,WUHU21623XXSP,2013-02-13 01:45:00,
2013-02-12 19:50:00,27.3,16.3,29.91,South,180,0.0,0.0,63,0.00,,,0.00,WUHU21623XXSP,2013-02-13 01:50:00,
2013-02-12 19:55:00,27.5,16.5,29.91,South,180,0.0,0.0,63,0.00,,,0.00,WUHU21623XXSP,2013-02-13 01:55:00,
2013-02-12 20:00:00,27.3,16.7,29.92,South,180,0.0,0.0,64,0.00,,,0.00,WUHU21623XXSP,2013-02-13 02:00:00,
2013-02-12 20:05:00,27.3,16.7,29.91,South,180,0.0,0.0,64,0.00,,,0.00,WUHU21623XXSP,2013-02-13 02:05:00,
2013-02-12 20:10:00,27.3,16.7,29.91,South,180,0.0,0.0,64,0.00,,,0.00,WUHU21623XXSP,2013-02-13 02:10:00,
2013-02-12 20:15:00,27.3,16.5,29.91,South,180,0.0,0.0,64,0.00,,,0.00,WUHU21623XXSP,2013-02-13 02:15:00,
2013-02-12 20:20:00,27.1,16.5,29.91,South,180,0.0,0.0,64,0.00,,,0.00,WUHU21623XXSP,2013-02-13 02:20:00,
2013-02-12 20:25:00,27.1,16.5,29.91,SSE,157,0.0,0.0,64,0.00,,,0.00,WUHU21623XXSP,2013-02-13 02:25:00,
2013-02-12 20:30:00,27.0,16.3,29.91,South,180,0.0,0.0,64,0.00,,,0.00,WUHU21623XXSP,2013-02-13 02:30:00,
2013-02-12 20:35:00,27.0,16.7,29.91,South,180,0.0,0.0,65,0.00,,,0.00,WUHU21623XXSP,2013-02-13 02:35:00,
2013-02-12 20:40:00,26.8,16.5,29.91,South,180,0.0,0.0,65,0.00,,,0.00,WUHU21623XXSP,2013-02-13 02:40:00,
2013-02-12 20:45:00,26.8,16.5,29.91,SSW,202,0.0,0.0,65,0.00,,,0.00,WUHU21623XXSP,2013-02-13 02:45:00,
2013-02-12 20:50:00,26.8,16.5,29.91,SSW,202,0.0,0.0,65,0.00,,,0.00,WUHU21623XXSP,2013-02-13 02:50:00,
2013-02-12 20:55:00,26.8,16.5,29.90,SSW,202,0.0,0.0,65,0.00,,,0.00,WUHU21623XXSP,2013-02-13 02:55:00,
2013-02-12 21:00:00,26.8,16.5,29.90,South,180,0.0,0.0,65,0.00,,,0.00,WUHU21623XXSP,2013-02-13 03:00:00,
2013-02-12 21:05:00,26.8,16.5,29.90,South,180,0.0,0.0,65,0.00,,,0.00,WUHU21623XXSP,2013-02-13 03:05:00,
2013-02-12 21:10:00,26.4,16.2,29.90,South,180,0.0,0.0,65,0.00,,,0.00,WUHU21623XXSP,2013-02-13 03:10:00,
2013-02-12 21:15:00,26.4,16.0,29.90,South,180,0.0,0.0,65,0.00,,,0.00,WUHU21623XXSP,2013-02-13 03:15:00,
2013-02-12 21:20:00,26.2,16.0,29.90,South,180,0.0,0.0,65,0.00,,,0.00,WUHU21623XXSP,2013-02-13 03:20:00,
2013-02-12 21:25:00,26.1,15.8,29.90,SSE,157,0.0,0.0,65,0.00,,,0.00,WUHU21623XXSP,2013-02-13 03:25:00,
2013-02-12 21:30:00,26.2,16.0,29.89,SSE,157,0.0,0.0,65,0.00,,,0.00,WUHU21623XXSP,2013-02-13 03:30:00,
2013-02-12 21:35:00,26.1,16.2,29.89,SSE,157,0.0,0.0,66,0.00,,,0.00,WUHU21623XXSP,2013-02-13 03:35:00,
2013-02-12 21:40:00,26.1,16.2,29.89,SSE,157,0.0,0.0,66,0.00,,,0.00,WUHU21623XXSP,2013-02-13 03:40:00,
2013-02-12 21:45:00,26.1,16.2,29.89,SSE,157,0.0,0.0,66,0.00,,,0.00,WUHU21623XXSP,2013-02-13 03:45:00,
2013-02-12 21:50:00,25.9,16.0,29.89,SSE,157,0.0,0.0,66,0.00,,,0.00,WUHU21623XXSP,2013-02-13 03:50:00,
2013-02-12 21:55:00,25.7,15.8,29.89,SSE,157,0.0,0.0,66,0.00,,,0.00,WUHU21623XXSP,2013-02-13 03:55:00,
2013-02-12 22:00:00,25.7,15.8,29.89,SSE,157,0.0,0.0,66,0.00,,,0.00,WUHU21623XXSP,2013-02-13 04:00:00,
2013-02-12 22:05:00,25.7,15.8,29.89,South,180,0.0,0.0,66,0.00,,,0.00,WUHU21623XXSP,2013-02-13 04:05:00,
2013-02-12 22:10:00,25.7,15.8,29.89,South,180,0.0,0.0,66,0.00,,,0.00,WUHU21623XXSP,2013-02-13 04:10:00,
2013-02-12 22:15:00,25.5,15.7,29.89,South,180,0.0,0.0,66,0.00,,,0.00,WUHU21623XXSP,2013-02-13 04:15:00,
2013-02-12 22:20:00,25.5,15.7,29.89,South,180,0.0,0.0,66,0.00,,,0.00,WUHU21623XXSP,2013-02-13 04:20:00,
2013-02-12 22:25:00,25.5,15.7,29.89,South,180,0.0,0.0,66,0.00,,,0.00,WUHU21623XXSP,2013-02-13 04:25:00,
2013-02-12 22:30:00,25.5,15.7,29.89,South,180,0.0,0.0,66,0.00,,,0.00,WUHU21623XXSP,2013-02-13 04:30:00,
2013-02-12 22:35:00,25.3,15.5,29.89,South,180,0.0,0.0,66,0.00,,,0.00,WUHU21623XXSP,2013-02-13 04:35:00,
2013-02-12 22:40:00,25.3,15.5,29.88,South,180,0.0,0.0,66,0.00,,,0.00,WUHU21623XXSP,2013-02-13 04:40:00,
2013-02-12 22:45:00,25.3,15.8,29.88,SE,135,0.0,0.0,67,0.00,,,0.00,WUHU21623XXSP,2013-02-13 04:45:00,
2013-02-12 22:50:00,25.3,15.8,29.88,SSE,157,0.0,0.0,67,0.00,,,0.00,WUHU21623XXSP,2013-02-13 04:50:00,
2013-02-12 22:55:00,25.5,16.0,29.88,SSE,157,0.0,0.0,67,0.00,,,0.00,WUHU21623XXSP,2013-02-13 04:55:00,
2013-02-12 23:00:00,25.5,16.0,29.88,SSE,157,0.0,0.0,67,0.00,,,0.00,WUHU21623XXSP,2013-02-13 05:00:00,
2013-02-12 23:05:00,25.5,16.0,29.88,SSE,157,0.0,0.0,67,0.00,,,0.00,WUHU21623XXSP,2013-02-13 05:05:00,
2013-02-12 23:10:00,25.5,16.0,29.88,SSE,157,0.0,0.0,67,0.00,,,0.00,WUHU21623XXSP,2013-02-13 05:10:00,
2013-02-12 23:15:00,25.5,16.0,29.87,SSE,157,0.0,0.0,67,0.00,,,0.00,WUHU21623XXSP,2013-02-13 05:15:00,
2013-02-12 23:20:00,25.5,16.0,29.87,South,180,0.0,0.0,67,0.00,,,0.00,WUHU21623XXSP,2013-02-13 05:20:00,
2013-02-12 23:25:00,25.3,15.8,29.88,South,180,0.0,0.0,67,0.00,,,0.00,WUHU21623XXSP,2013-02-13 05:25:00,
2013-02-12 23:30:00,25.5,16.0,29.87,South,180,0.0,0.0,67,0.00,,,0.00,WUHU21623XXSP,2013-02-13 05:30:00,
2013-02-12 23:35:00,25.5,16.0,29.87,South,180,0.0,0.0,67,0.00,,,0.00,WUHU21623XXSP,2013-02-13 05:35:00,
2013-02-12 23:40:00,25.3,15.8,29.87,South,180,0.0,0.0,67,0.00,,,0.00,WUHU21623XXSP,2013-02-13 05:40:00,
2013-02-12 23:45:00,25.3,15.8,29.86,SE,135,0.0,0.0,67,0.00,,,0.00,WUHU21623XXSP,2013-02-13 05:45:00,
2013-02-12 23:50:00,25.3,15.8,29.86,SSE,157,0.0,0.0,67,0.00,,,0.00,WUHU21623XXSP,2013-02-13 05:50:00,
2013-02-12 23:55:00,25.2,15.7,29.86,SSE,157,0.0,0.0,67,0.00,,,0.00,WUHU21623XXSP,2013-02-13 05:55:00,